Wilmington, DE

12:24 AM EST on November 20, 2019 (GMT -0500)
New Castle County

Weather History for KILG - August, 2019

Change the Weather History Date:

Saturday, August 3, 2019

  Actual Average Record
Temperature  
Mean Temperature 79 °F 76 °F  
Max Temperature 87 °F 85 °F 97 °F (1957)
Min Temperature 71 °F 68 °F 52 °F (1920)
Degree Days  
Heating Degree Days 0 0  
Month to date heating degree days 0 0  
Since 1 June heating degree days 5 15  
Since 1 July heating degree days 0 0  
Cooling Degree Days 14 11  
Month to date cooling degree days 41 35  
Year to date cooling degree days 903 712  
Since 1 June cooling degree days 771 633  
Growing Degree Days 29 (Base 50)    
Moisture  
Dew Point 71 °F    
Average Humidity 78    
Maximum Humidity 100    
Minimum Humidity 55    
Precipitation  
Precipitation 0.00 in 0.12 in 2.08 in (1967)
Month to date precipitation 0.40 0.36  
Year to date precipitation 33.86 25.87  
Snow  
Snow 0.00 in 0.00 in 0.00 in (1894)
Month to date snowfall 0.0 0.0  
Since 1 June snowfall 0.0 0.0  
Since 1 July snowfall 0.0 0.0  
Snow Depth 0.00 in    
Sea Level Pressure  
Sea Level Pressure 30.02 in    
Wind  
Wind Speed 5 mph (SSE)    
Max Wind Speed 18 mph    
Max Gust Speed 24 mph    
Visibility 9 miles    
Events      
T = Trace of Precipitation, MM = Missing Value Source: NWS Daily Summary

Daily Weather History Graph

Daily Weather History Graph

Search for Another Location

Airport or City:

Astronomy

Aug. 03, 2019 Rise Set
Actual Time 6:03 AM EDT 8:13 PM EDT
Civil Twilight 5:33 AM EDT 8:43 PM EDT
Nautical Twilight 4:56 AM EDT 9:19 PM EDT
Astronomical Twilight 4:16 AM EDT 9:59 PM EDT
Moon 8:52 AM EDT (8/3) 10:18 PM EDT (8/3)
Length of Visible Light 15h 10m
Length of Day
14h 10m
Waxing Crescent, 10% of the Moon is Illuminated
Aug 3
Waxing Crescent
Aug 7
First Quarter
Aug 15
Full
Aug 23
Last Quarter
Aug 30
New

Hourly Weather History & Observations

Time (EDT) Temp. Heat Index Dew Point Humidity Pressure Visibility Wind Dir Wind Speed Gust Speed Precip Events Conditions
12:09 AM 75.0 °F - 72.0 °F 90% 30.09 in 10.0 mi Calm Calm - N/A   Scattered Clouds
12:51 AM 75.0 °F - 72.0 °F 90% 30.09 in 10.0 mi Calm Calm - N/A   Clear
1:51 AM 73.9 °F - 72.0 °F 93% 30.09 in 10.0 mi SSW 4.6 mph - N/A   Clear
2:48 AM 75.2 °F - 71.6 °F 89% 30.08 in 10.0 mi Calm Calm - N/A   Mostly Cloudy
2:51 AM 75.0 °F - 72.0 °F 90% 30.08 in 10.0 mi Calm Calm - N/A   Mostly Cloudy
2:58 AM 73.9 °F - 72.0 °F 93% 30.08 in 10.0 mi Calm Calm - N/A   Scattered Clouds
3:51 AM 73.0 °F - 71.1 °F 93% 30.06 in 10.0 mi Calm Calm - N/A   Clear
4:51 AM 72.0 °F - 71.1 °F 97% 30.05 in 8.0 mi Calm Calm - N/A   Clear
5:51 AM 72.0 °F - 71.1 °F 97% 30.06 in 7.0 mi Calm Calm - N/A   Clear
6:12 AM 71.1 °F - 71.1 °F 100% 30.06 in 2.0 mi Calm Calm - N/A   Clear
6:23 AM 72.0 °F - 72.0 °F 100% 30.06 in 4.0 mi Calm Calm - N/A   Clear
6:51 AM 73.0 °F - 72.0 °F 96% 30.06 in 4.0 mi Calm Calm - N/A   Clear
7:38 AM 75.0 °F - 73.0 °F 94% 30.07 in 6.0 mi North 3.5 mph - N/A   Mostly Cloudy
7:51 AM 75.0 °F - 73.0 °F 94% 30.06 in 6.0 mi North 3.5 mph - N/A   Overcast
8:51 AM 78.1 °F - 72.0 °F 81% 30.06 in 8.0 mi Calm Calm - N/A   Scattered Clouds
9:51 AM 78.1 °F - 71.1 °F 79% 30.05 in 10.0 mi Calm Calm - N/A   Clear
9:55 AM 79.0 °F - 70.0 °F 74% 30.06 in 10.0 mi Calm Calm - N/A   Clear
10:02 AM 80.1 °F 82.9 °F 69.1 °F 69% 30.06 in 10.0 mi Calm Calm - N/A   Mostly Cloudy
10:51 AM 82.0 °F 86.3 °F 71.1 °F 69% 30.05 in 10.0 mi ENE 3.5 mph - N/A   Mostly Cloudy
10:56 AM 82.0 °F 85.9 °F 70.0 °F 67% 30.05 in 10.0 mi Variable 3.5 mph - N/A   Mostly Cloudy
11:51 AM 81.0 °F 84.4 °F 70.0 °F 69% 30.03 in 10.0 mi North - - N/A   Mostly Cloudy
11:58 AM 82.9 °F 87.5 °F 71.1 °F 67% 30.03 in 10.0 mi North - - N/A   Mostly Cloudy
12:21 PM 84.0 °F 89.6 °F 72.0 °F 67% 30.02 in 10.0 mi SSE 8.1 mph - N/A   Mostly Cloudy
12:30 PM 84.0 °F 89.6 °F 72.0 °F 67% 30.02 in 10.0 mi SSE 5.8 mph - N/A   Scattered Clouds
12:51 PM 84.0 °F 89.0 °F 71.1 °F 65% 30.01 in 10.0 mi SSE 8.1 mph - N/A   Partly Cloudy
1:51 PM 84.9 °F 88.2 °F 68.0 °F 57% 29.99 in 10.0 mi Variable 3.5 mph - N/A   Mostly Cloudy
2:51 PM 84.9 °F 88.8 °F 69.1 °F 59% 29.97 in 10.0 mi South 8.1 mph - N/A   Clear
3:51 PM 87.1 °F 92.0 °F 70.0 °F 57% 29.95 in 10.0 mi South 4.6 mph - N/A   Clear
4:51 PM 84.9 °F 88.8 °F 69.1 °F 59% 29.94 in 10.0 mi SE 8.1 mph - N/A   Clear
5:51 PM 84.9 °F 89.4 °F 70.0 °F 61% 29.92 in 10.0 mi SSE 12.7 mph - N/A   Clear
6:51 PM 82.9 °F 86.5 °F 69.1 °F 63% 29.92 in 10.0 mi South 12.7 mph - N/A   Clear
7:51 PM 82.0 °F 85.9 °F 70.0 °F 67% 29.93 in 10.0 mi South 6.9 mph - N/A   Clear
8:51 PM 80.1 °F 83.8 °F 72.0 °F 76% 29.94 in 10.0 mi SE 9.2 mph - N/A   Clear
9:51 PM 80.1 °F 83.8 °F 72.0 °F 76% 29.94 in 10.0 mi South 8.1 mph - N/A   Clear
10:51 PM 78.1 °F - 72.0 °F 81% 29.95 in 10.0 mi South 5.8 mph - N/A   Clear
11:51 PM 77.0 °F - 72.0 °F 84% 29.94 in 10.0 mi South 8.1 mph - N/A   Partly Cloudy